Location: Forli
(44.2227°N, 12.0407°E)
Time: 19:16:55
(UTC+01:00)

ISS - Pass Details

Date: 20 February 2026
Orbit: 416 x 427 km, 51.6° (Epoch: 6 March)

Event Time Altitude Azimuth Distance (km) Brightness Sun altitude
Exits shadow 06:30:54 - 298° (WNW) 1,686 -1.3 -6.6°
Reaches altitude 10° 06:31:28 10° 304° (WNW) 1,496 -1.5 -6.5°
Maximum altitude 06:34:11 22° 358° (N) 961 -2.0 -6.1°
Drops below altitude 10° 06:36:54 10° 52° (NE) 1,494 -0.3 -5.6°
Sets 06:39:18 0° 68° (ENE) 2,357 1.2 -5.2°
